Location: Burgberg
(50.1428°N, 11.0671°E)
Time: 23:57:07
(UTC+00:00)

STARLINK-25 - Pass Details

Date: 26 January 2020
Orbit: 528 x 531 km, 53.0° (Epoch: 23 February)

Event Time Altitude Azimuth Distance (km) Brightness Sun altitude
Exits shadow 04:47:59 68° 277° (W) 574 3.4 -20.7°
Maximum altitude 04:48:25 80° 340° (NNW) 544 3.4 -20.6°
Drops below altitude 10° 04:52:29 10° 69° (ENE) 1,784 7.1 -20.0°
Sets 04:54:42 0° 71° (ENE) 2,676 8.3 -19.6°
